Location: *
(46.4000°N, 12.6667°E)
Time: 02:09:27
(UTC+00:00)

ISS - Pass Details

Date: 07 December 2021
Orbit: 413 x 422 km, 51.6° (Epoch: 22 January)

Event Time Altitude Azimuth Distance (km) Brightness Sun altitude
Rises 17:42:42 0° 284° (WNW) 2,380 1.2 -23.2°
Reaches altitude 10° 17:45:40 10° 256° (WSW) 1,507 0.1 -23.7°
Maximum altitude 17:47:19 13° 227° (SW) 1,329 -0.6 -24.0°
Drops below altitude 10° 17:48:58 10° 198° (SSW) 1,499 -0.7 -24.3°
Enters shadow 17:49:49 - 186° (S) 1,698 -0.5 -24.4°
